Username
Password
 
Info Terbaru :
  

Jackpot hanya dapat di beli di awal sebelum periode tersebut berjalan dan jika berhasil maka anda dapat melihat di sisi kiri bawah atau kiri atas akan terdapat notifikasi bahwa jackpot anda berhasil di beli.

Jika anda membeli jackpot di tengah permainan maka pembelian jackpot akan berlaku untuk periode selanjutnya.

Jackpot Winner Ceme

Jackpot dilihat dari gabungan kartu pemain dengan kartu bandar. Bandar harus membeli jackpot sebanyak jumlah player yang sedang duduk. Sebagai contoh bila terdapat 3 pemain duduk bermain, dan bandar memutuskan untuk membeli jackpot Rp 1.000, maka pada periode tersebut bandar akan membeli jackpot sebanyak 3xRp1.000 = Rp3.000.

Jackpot bukanlah suatu keharusan untuk dibeli, namun kami memberikan suatu fitur tambahan untuk member tercinta dari www.depokdomino.net.

Terdapat tiga pilihan harga jackpot yang bisa anda beli yaitu :100,500 dan 1000 rupiah.

Hadiah dari Multi jackpot system www.depokdomino.net

  1. Murni Kecil x 50 harga jackpot yang anda beli.
      (contoH:anda membeli 1000 maka:1000 X 50 = 50.000)
  2. Murni Besar x 50 harga jackpot yang anda beli
      (contoH:anda membeli 1000 maka:1000 X 50 = 50.000)
  3. BALAK x 200 harga jackpot yang anda beli
      (contoH:anda membeli 1000 maka:1000 X 200 = 200.000)
  4. ENAM DEWA x 6666 harga jackpot yang anda beli
      (contoH:anda membeli 1000 maka:1000 X 6666 = 6.666.000)

Demikian adalah penjelasan dari Multi Jackpot www.depokdomino.net terima kasih dan selamat bermain salam hoki dari kami


Jackpot Winner

TOP ENAM DEWA
No. Tanggal Nama Price Win
1 21/11 17:26 EXEL86 murni enam 6,666,000
2 21/11 17:25 NENGCNTK murni enam 666,600
3 21/11 17:22 KEPARAT3 murni enam 666,600
4 21/11 17:09 KARAMBIH murni enam 6,666,000
5 21/11 17:09 INGROSSO21 murni enam 666,600
TOP BALAK
No. Tanggal Nama Price Win
1 21/11 17:34 SICIPIR balak 200,000
2 21/11 17:34 KOM3NK007 balak 200,000
3 21/11 17:33 BELAGGIO balak 100,000
4 21/11 17:33 JANAH457 balak 200,000
5 21/11 17:32 QUENZI balak 20,000
LATEST JACKPOT
No. Tanggal Nama Price Win
1 21/11 17:34 SICIPIR balak 200,000
2 21/11 17:34 UMMA murni kecil 5,000
3 21/11 17:34 DANIL357 murni besar 5,000
4 21/11 17:34 KEJOY murni kecil 50,000
5 21/11 17:34 AGR2017 murni besar 5,000
6 21/11 17:34 KOM3NK007 balak 200,000
7 21/11 17:33 TEACHADENG murni kecil 50,000
8 21/11 17:33 GENDENGCOK murni kecil 50,000
9 21/11 17:33 SON_797 murni kecil 5,000
10 21/11 17:33 BELAGGIO balak 100,000
11 21/11 17:33 BH5624EZ murni kecil 50,000
12 21/11 17:33 B82BEAT2015927 murni besar 50,000
13 21/11 17:33 JANAH457 balak 200,000
14 21/11 17:33 A5D9AD9W murni besar 5,000
15 21/11 17:32 SAKILA456 murni kecil 50,000
16 21/11 17:32 R4TU24 murni besar 50,000
17 21/11 17:32 QUENZI balak 20,000
18 21/11 17:32 SHAKA34 murni kecil 50,000
19 21/11 17:32 MENYORO murni kecil 25,000
20 21/11 17:31 Y79MH3J903 murni besar 50,000
21 21/11 17:31 SIKSA77 murni besar 50,000
22 21/11 17:31 WINNERLOP murni kecil 50,000
23 21/11 17:31 ARCHER50 murni besar 50,000
24 21/11 17:31 B3O658DPXR murni besar 50,000
25 21/11 17:31 FAYAYA murni besar 50,000
26 21/11 17:31 E9684CAA murni besar 50,000
27 21/11 17:31 YANETA87 murni kecil 50,000
28 21/11 17:31 AL44N murni kecil 50,000
29 21/11 17:31 LADUNNI balak 200,000
30 21/11 17:31 ELBAS89 murni kecil 50,000
31 21/11 17:30 HARLEY33 murni kecil 50,000
32 21/11 17:30 MARUCIL77 murni kecil 25,000
33 21/11 17:30 F4NCY murni kecil 50,000
34 21/11 17:30 BELAGGIO balak 100,000
35 21/11 17:30 B3BB3 balak 200,000
36 21/11 17:30 SURYASTAR1 murni kecil 50,000
37 21/11 17:30 MIUN988 murni kecil 50,000
38 21/11 17:30 RINALD murni kecil 50,000
39 21/11 17:30 EXCELBOY murni besar 50,000
40 21/11 17:30 AKUSDIANA murni besar 50,000
41 21/11 17:30 CUMI678 murni besar 50,000
42 21/11 17:30 ENDAY8978 murni kecil 50,000
43 21/11 17:30 KPK1981 balak 20,000
44 21/11 17:30 TEMPOYAX12 balak 100,000
45 21/11 17:29 RIFKI2016 murni besar 50,000
46 21/11 17:29 BLUE889 balak 100,000
47 21/11 17:29 B82BEAT2015927 murni kecil 50,000
48 21/11 17:29 BOYS8899 murni kecil 5,000
49 21/11 17:29 LUIBAI balak 100,000
50 21/11 17:29 ULOGSABA balak 200,000


Situs Poker Online
Dewapoker.com Hadir untuk semua pecinta permainan kartu poker online yang khususnya berada di asia. Dengan system teknology baru dan server kecepatan tinggi akan membuat permainan poker anda lebih seru dan menarik bersama teman2x anda maupun saingan anda. Cukup lakukan login dan langsung bermain tanpa download. Dewapoker.com dengan encrypsi server yang tinggi akan menjamin keamanan data para member.
Terms & Conditions Link Alternatif Video Dewapoker
© Copyright 2018 Dewa Poker. All right reserved.
Dewa.FM